Wind_Speed
70 80 72 81 84 85 89 94 89 85 84 81 74 68 72 68 68 67 65 68 65 67 64 60 61 60 56 55 57 56 53 52 52 53 51 50 45 43 40 39 37 37 37 38
74 67 80 82 81 85 88 88 87 85 88 84 79 74 72 71 68 67 68 72 69 65 68 65 61 60 58 57 59 57 53 52 54 54 54 53 48 44 38 38 39 41 43 42
75 77 73 84 87 81 82 83 85 88 89 86 85 71 72 75 71 69 67 65 64 68 71 68 60 58 60 60 61 57 54 54 56 57 56 55 51 45 44 46 47 47 46 46
86 80 78 76 79 86 83 84 85 85 84 84 86 79 74 74 71 72 73 70 67 67 70 68 62 60 62 61 59 57 56 56 59 59 59 57 51 50 52 51 52 52 51 51
88 81 77 76 82 79 81 82 85 87 88 87 80 73 70 72 71 72 72 72 66 69 68 64 65 63 61 63 62 62 62 61 61 60 59 57 52 54 54 54 55 56 57 56
88 84 81 79 80 88 86 80 84 83 83 81 78 79 66 74 77 78 79 79 78 76 69 68 67 66 64 64 64 64 64 63 64 62 61 58 56 57 58 60 61 62 63 65
80 76 75 77 78 84 83 88 88 86 86 82 84 84 66 72 75 75 76 75 75 74 73 71 70 69 68 66 66 67 66 65 66 65 63 61 61 63 63 65 67 68 68 68
85 81 74 68 72 79 86 91 91 88 85 82 83 77 65 66 67 71 75 77 76 75 73 73 73 73 71 70 69 68 67 67 67 67 68 69 71 69 68 69 70 71 71 71
88 80 83 76 78 83 82 84 87 93 91 90 86 75 74 72 72 74 75 75 77 77 76 75 75 74 73 73 72 72 71 71 71 70 73 73 73 73 72 72 74 75 75 74
95 90 87 86 88 80 80 83 86 86 85 86 80 77 73 75 76 78 80 80 80 80 79 77 77 77 78 77 75 75 74 74 75 76 76 76 78 78 78 77 78 77 77 78
95 93 91 92 86 82 89 80 78 83 88 87 81 78 75 77 77 80 82 81 82 81 81 82 81 80 80 79 78 77 77 78 79 80 82 83 84 84 84 83 83 84 83 81
89 93 97 93 91 87 91 87 94 94 86 89 93 88 81 82 80 81 84 85 83 84 84 81 81 82 81 82 82 82 83 85 84 86 88 88 87 87 88 87 87 89 87 88
98 96 97 96 94 91 87 88 90 91 93 94 95 80 86 83 84 88 90 90 89 87 84 85 85 85 85 86 86 87 88 89 90 91 90 89 88 92 93 93 92 95 97 96
90 95 100 95 94 92 92 96 96 95 99 92 93 84 82 80 82 84 84 82 81 85 89 87 88 90 91 93 93 93 93 93 93 94 95 94 94 96 97 96 97 97 98 99
95 92 90 95 100 102 97 96 97 102 95 98 83 90 86 88 89 87 88 89 88 88 91 92 92 93 93 93 95 97 99 98 97 98 100 100 98 99 100 100 101 99 102 102
101 99 96 97 97 99 102 100 98 99 101 104 101 94 94 96 97 97 96 93 92 90 90 92 93 96 97 99 100 101 102 102 104 105 104 106 105 104 106 104 103 104 102 101
101 101 103 103 101 105 106 92 97 97 97 98 98 92 100 102 101 102 100 96 94 92 93 96 97 98 100 101 101 102 103 105 104 107 107 107 103 99 101 99 98 95 98 99
94 96 102 107 111 111 99 98 100 98 96 95 94 94 99 99 97 93 91 92 93 94 96 96 96 98 99 101 104 107 105 101 101 100 98 96 96 95 94 94 93 92 99 100
100 99 98 100 98 95 94 90 91 95 92 95 96 94 95 99 100 101 103 103 102 102 103 105 105 105 98 98 98 97 96 95 94 93 93 95 95 94 95 93 92 96 97 98
93 94 98 101 102 96 83 83 85 87 82 83 84 85 88 92 92 94 100 102 103 101 101 101 99 96 96 93 91 93 93 93 96 96 95 95 95 95 97 100 100 96 97 99
84 88 92 92 92 88 85 85 87 85 79 88 91 93 94 94 94 95 92 91 92 89 90 91 92 91 92 92 93 94 96 97 97 98 99 99 101 103 105 105 104 105 107 107
88 91 91 93 92 87 84 87 87 87 89 91 94 97 97 95 93 92 92 90 91 92 93 93 93 93 95 98 99 98 101 100 100 102 102 106 108 110 111 113 113 114 115 111
90 92 93 94 92 90 85 88 88 89 88 92 93 90 90 92 96 97 95 92 92 94 94 96 96 97 98 101 102 101 101 98 98 100 99 100 100 103 106 110 111 113 116 118
97 98 100 101 97 96 96 94 94 95 96 90 87 93 91 90 89 90 98 97 96 95 96 96 98 99 99 100 101 100 101 102 103 105 108 109 110 111 113 117 119 120 121 120
108 106 103 104 101 103 103 103 103 102 100 97 91 92 93 101 100 97 95 100 102 102 100 102 104 104 105 107 107 107 111 113 114 116 115 116 118 116 116 114 112 110 110 109
114 113 117 115 115 112 108 108 106 106 107 107 107 107 107 108 108 111 113 115 115 114 113 111 111 113 113 116 119 119 121 119 117 115 115 112 109 108 108 107 106 106 106 106
Wind_Direction
228 232 231 233 232 234 238 238 242 247 252 251 252 257 258 263 261 262 268 276 273 277 274 279 284 283 285 288 295 298 299 299 294 293 294 295 295 295 297 294 296 297 300 300
222 230 233 231 233 234 238 239 242 245 248 248 250 254 258 259 258 262 268 270 268 270 275 279 282 279 281 287 290 292 292 291 289 290 291 291 293 292 296 295 294 294 294 294
220 221 230 235 232 234 236 238 240 244 247 249 252 252 255 259 257 259 265 260 262 271 279 278 273 273 278 282 289 287 286 286 287 287 288 288 289 286 289 292 293 294 292 293
226 222 229 229 235 236 239 240 241 245 248 249 252 252 254 254 254 259 258 260 265 272 271 268 270 273 280 282 283 280 281 281 283 284 285 285 283 286 288 291 293 294 294 295
229 228 228 233 234 231 231 236 240 244 245 248 248 247 248 251 253 255 258 266 264 269 266 266 272 275 276 278 277 278 278 278 279 280 281 282 280 284 288 288 289 292 293 291
231 233 230 232 235 238 236 236 238 241 242 242 245 246 239 250 255 258 262 264 262 265 262 267 270 272 272 274 273 275 277 279 280 280 280 279 278 282 284 285 286 287 289 291
233 232 238 236 239 236 239 243 241 239 241 242 243 245 239 249 256 259 262 261 261 262 264 268 269 268 269 270 270 271 273 276 278 278 278 279 279 281 282 283 283 284 287 290
227 229 232 236 242 244 242 240 239 240 241 242 242 246 244 239 250 259 263 265 266 265 265 265 265 267 268 270 270 271 273 275 276 277 278 279 280 281 280 280 281 283 285 289
228 229 232 230 239 243 245 245 246 246 244 244 245 245 253 255 253 254 257 261 264 265 265 265 267 267 268 270 270 269 272 273 274 275 278 280 281 281 280 281 281 283 285 287
229 228 227 231 234 236 244 246 247 251 250 250 248 250 253 254 255 254 252 256 259 261 264 267 268 269 270 271 272 274 275 277 277 279 280 280 280 282 281 282 283 285 287 288
233 232 232 228 234 241 242 239 245 249 251 252 249 246 245 249 252 253 253 252 256 261 265 264 264 266 267 269 273 275 277 278 279 279 281 282 282 284 285 284 285 285 287 288
231 233 230 232 232 239 240 242 241 244 248 249 248 243 247 245 247 250 252 254 254 255 259 264 267 268 270 272 273 275 276 278 279 280 281 283 283 284 285 285 284 287 289 289
234 233 234 234 235 239 245 246 250 252 252 253 254 254 254 255 255 254 257 256 258 260 258 260 262 264 269 272 273 273 275 276 276 278 280 282 283 283 284 285 285 284 286 289
236 239 235 237 239 242 244 245 246 248 250 253 254 256 256 258 260 260 262 263 262 262 262 262 263 263 265 268 271 272 275 277 279 280 281 283 285 285 285 286 286 287 288 288
236 238 239 238 241 241 241 243 247 250 252 255 257 258 258 258 259 261 263 263 264 265 266 267 267 266 266 266 267 268 270 272 275 277 279 280 282 283 284 285 286 286 287 288
235 236 239 238 240 242 244 245 249 252 255 255 255 256 259 260 259 260 262 266 268 268 267 267 267 268 270 270 270 270 270 269 271 274 277 279 280 280 283 285 284 284 283 285
237 239 241 241 242 243 244 247 248 251 253 254 257 258 259 262 264 265 265 265 267 266 266 267 269 271 273 273 273 272 271 271 273 274 275 275 277 279 281 281 281 282 284 284
238 241 244 245 245 248 250 250 252 252 255 257 258 258 259 259 260 261 262 263 263 264 266 268 270 272 274 274 276 276 276 275 275 274 275 276 275 275 276 277 278 281 283 283
243 245 248 249 249 253 252 252 255 254 253 258 259 260 261 260 260 260 260 261 264 268 271 272 274 274 274 274 274 273 274 274 274 274 275 276 276 276 277 280 282 284 283 283
247 248 249 250 251 253 254 255 256 258 260 261 260 260 260 261 262 263 263 265 267 269 271 273 274 273 274 274 274 275 275 276 276 276 276 277 276 277 278 280 282 282 282 281
248 245 246 247 248 250 251 250 251 252 254 256 260 261 262 264 267 269 270 270 270 271 272 274 274 273 274 275 276 278 279 279 277 275 275 274 276 278 279 279 280 280 280 279
255 253 248 247 250 251 252 252 253 253 252 254 257 259 263 266 268 270 270 270 271 272 272 273 273 272 272 273 274 275 276 275 275 274 274 274 275 276 276 276 276 275 276 276
248 251 255 256 257 253 249 250 253 254 255 259 259 259 261 263 264 266 268 269 270 271 271 271 270 270 271 273 275 275 276 277 277 278 278 279 280 280 280 282 283 285 287 287
253 253 255 257 257 260 261 258 256 255 258 260 260 259 261 264 271 273 267 268 270 272 273 273 275 275 274 275 276 277 278 279 280 281 282 281 282 282 282 281 281 282 283 283
255 256 256 257 260 261 262 260 259 260 261 264 269 267 267 272 276 276 273 274 276 272 272 272 274 275 275 275 275 276 280 282 281 282 281 281 282 283 283 283 283 284 284 285
253 254 256 259 261 264 266 266 266 267 268 270 272 272 273 275 276 276 277 278 278 279 278 279 279 279 279 279 280 281 282 281 280 280 280 282 282 282 283 283 284 284 284 285
Height
10652 10662 10675 10674 10677 10682 10687 10696 10702 10709 10718 10727 10734 10739 10739 10746 10753 10753 10755 10754 10751 10750 10749 10754 10757 10758 10756 10752 10753 10754 10753 10753 10750 10748 10747 10745 10744 10740 10738 10736 10734 10733 10731 10728
10642 10654 10652 10658 10667 10674 10680 10686 10692 10695 10701 10709 10719 10730 10731 10737 10741 10742 10744 10743 10739 10738 10737 10745 10749 10747 10744 10743 10743 10743 10744 10744 10742 10740 10739 10737 10737 10732 10730 10729 10727 10724 10722 10719
10628 10635 10635 10644 10652 10661 10667 10673 10675 10678 10685 10698 10708 10722 10723 10724 10732 10728 10729 10728 10728 10728 10730 10731 10737 10736 10733 10733 10735 10735 10734 10733 10731 10729 10730 10728 10727 10725 10723 10721 10717 10715 10712 10711
10610 10624 10627 10636 10643 10648 10655 10657 10659 10666 10674 10685 10693 10711 10711 10711 10717 10717 10713 10715 10718 10721 10720 10717 10722 10725 10723 10723 10724 10725 10723 10722 10721 10720 10719 10718 10718 10715 10713 10711 10707 10704 10701 10698
10605 10611 10614 10622 10629 10629 10638 10638 10644 10650 10658 10668 10682 10692 10700 10698 10700 10699 10703 10708 10708 10707 10709 10707 10708 10712 10712 10712 10711 10711 10710 10710 10709 10710 10709 10707 10708 10706 10702 10700 10697 10693 10689 10687
10583 10594 10601 10610 10612 10616 10626 10627 10634 10639 10645 10659 10666 10671 10695 10679 10681 10687 10695 10695 10694 10693 10695 10696 10696 10697 10699 10699 10699 10698 10697 10696 10697 10698 10698 10696 10696 10694 10691 10688 10685 10683 10680 10675
10575 10581 10589 10594 10597 10604 10612 10613 10615 10621 10630 10647 10645 10650 10687 10676 10675 10673 10674 10678 10679 10679 10680 10680 10681 10682 10683 10684 10686 10686 10686 10685 10685 10685 10685 10684 10682 10680 10679 10675 10672 10668 10665 10663
10552 10562 10575 10582 10582 10585 10585 10589 10594 10603 10611 10626 10631 10652 10669 10669 10667 10664 10660 10656 10657 10662 10664 10665 10665 10666 10668 10670 10670 10671 10672 10672 10671 10671 10670 10668 10665 10663 10662 10660 10657 10655 10653 10651
10534 10544 10555 10560 10562 10562 10570 10580 10589 10584 10596 10607 10621 10644 10650 10651 10656 10652 10646 10641 10638 10640 10642 10646 10648 10650 10652 10653 10654 10655 10657 10658 10657 10656 10653 10651 10649 10646 10644 10643 10641 10640 10638 10636
10516 10521 10531 10538 10541 10543 10555 10567 10566 10570 10584 10592 10612 10621 10634 10632 10630 10633 10635 10627 10624 10624 10626 10628 10631 10634 10634 10634 10635 10637 10640 10641 10640 10638 10636 10634 10631 10629 10627 10626 10624 10621 10620 10617
10497 10505 10516 10518 10530 10541 10540 10547 10550 10555 10560 10573 10587 10600 10609 10609 10610 10610 10612 10616 10614 10612 10611 10612 10614 10616 10618 10619 10620 10622 10623 10622 10620 10618 10615 10613 10611 10610 10608 10606 10604 10602 10601 10598
10483 10487 10497 10508 10513 10516 10523 10532 10534 10535 10550 10550 10557 10584 10590 10591 10590 10591 10592 10594 10597 10598 10599 10600 10600 10602 10603 10604 10605 10607 10606 10605 10602 10600 10597 10595 10594 10592 10589 10586 10583 10582 10580 10578
10467 10472 10485 10491 10499 10509 10515 10523 10524 10525 10527 10540 10540 10580 10570 10571 10574 10574 10573 10576 10581 10583 10586 10586 10586 10586 10586 10586 10588 10589 10588 10587 10584 10581 10579 10577 10575 10572 10570 10568 10565 10562 10560 10558
10446 10455 10469 10485 10488 10489 10492 10499 10499 10498 10503 10529 10533 10548 10554 10556 10555 10554 10555 10558 10561 10563 10565 10567 10570 10571 10571 10571 10571 10570 10568 10566 10563 10560 10558 10557 10554 10551 10548 10545 10543 10540 10537 10534
10433 10442 10451 10460 10463 10469 10475 10481 10482 10485 10509 10499 10535 10523 10530 10532 10533 10535 10538 10538 10540 10543 10548 10551 10550 10549 10549 10553 10552 10550 10548 10546 10543 10540 10539 10537 10533 10530 10528 10525 10522 10518 10515 10512
10414 10424 10429 10436 10440 10447 10453 10461 10470 10480 10486 10491 10499 10509 10505 10503 10507 10514 10518 10522 10525 10526 10526 10526 10525 10524 10523 10526 10529 10528 10527 10526 10523 10521 10518 10517 10514 10509 10508 10505 10501 10498 10494 10490
10397 10404 10408 10416 10424 10423 10426 10461 10455 10460 10466 10469 10475 10491 10482 10482 10486 10492 10497 10501 10503 10503 10502 10503 10503 10503 10502 10501 10503 10503 10503 10501 10499 10498 10496 10495 10492 10489 10487 10483 10479 10475 10471 10467
10380 10387 10391 10396 10400 10400 10436 10437 10436 10444 10445 10450 10457 10464 10458 10460 10464 10469 10472 10475 10476 10477 10478 10479 10479 10479 10479 10477 10477 10478 10476 10475 10475 10473 10472 10469 10467 10465 10463 10460 10456 10451 10447 10443
10365 10369 10373 10373 10382 10394 10406 10420 10416 10415 10432 10431 10437 10439 10436 10435 10438 10445 10448 10449 10452 10454 10455 10454 10455 10453 10452 10451 10450 10450 10451 10451 10450 10448 10447 10445 10442 10439 10436 10432 10429 10426 10422 10418
10342 10347 10348 10355 10359 10376 10396 10392 10393 10397 10417 10410 10409 10410 10410 10408 10416 10421 10423 10428 10431 10432 10431 10430 10429 10428 10427 10425 10424 10425 10425 10425 10423 10422 10420 10418 10416 10413 10410 10407 10403 10399 10395 10391
10319 10324 10329 10332 10338 10358 10370 10373 10374 10383 10401 10385 10380 10382 10385 10390 10393 10395 10400 10404 10406 10406 10406 10405 10404 10403 10403 10401 10400 10400 10400 10399 10397 10395 10393 10391 10388 10386 10382 10378 10374 10369 10365 10361
10299 10299 10309 10313 10320 10338 10351 10351 10356 10361 10361 10364 10363 10363 10366 10371 10374 10374 10377 10380 10381 10382 10381 10380 10378 10378 10378 10375 10374 10374 10373 10370 10367 10365 10363 10361 10358 10355 10351 10347 10344 10340 10335 10328
10281 10284 10287 10290 10299 10308 10324 10329 10333 10338 10341 10343 10345 10346 10348 10350 10351 10351 10352 10354 10355 10355 10355 10354 10352 10352 10352 10350 10347 10345 10346 10342 10338 10335 10331 10328 10324 10320 10317 10313 10308 10303 10298 10293
10258 10265 10266 10271 10285 10289 10294 10305 10307 10310 10313 10319 10323 10325 10326 10328 10330 10330 10330 10331 10331 10329 10328 10326 10324 10322 10323 10322 10321 10318 10315 10312 10309 10306 10303 10300 10296 10292 10288 10284 10279 10274 10267 10262
10233 10242 10252 10254 10265 10269 10269 10271 10273 10278 10286 10295 10301 10303 10303 10301 10301 10302 10304 10305 10303 10302 10300 10299 10297 10295 10293 10291 10292 10290 10287 10284 10280 10276 10271 10267 10264 10259 10253 10249 10244 10238 10232 10229
10221 10226 10223 10232 10232 10233 10240 10242 10248 10255 10261 10266 10271 10273 10273 10272 10271 10271 10271 10271 10270 10269 10268 10269 10268 10265 10263 10259 10256 10253 10251 10248 10245 10241 10238 10234 10231 10226 10222 10218 10213 10208 10203 10197